#timestamp,LO_Frequency,Hit,StdDev 
1678737615.7,286047001.4,N
1678737635.6,286047005.6,Y
1678737655.4,286047001.6,P
1678737675.2,286047001.5,P
1678737695.1,286047002.6,P
1678737696.0,286047002.6,Y
1678737715.8,286047000.1,P
1678737735.6,286047002.7,P
1678737755.5,286047002.3,N
1678737775.3,286047001.8,N
1678737795.1,286047001.7,N
1678737815.9,286047001.4,N
1678737835.7,286047004.2,Y
1678737855.5,286047002.4,P
1678737875.4,286047002.0,P
1678737895.2,286047001.6,P
1678737915.0,286047002.0,Y
1678737915.9,286047002.0,P
1678737935.8,286046998.2,P
1678737955.6,286046998.3,N
1678737975.4,286046999.2,N
1678737995.3,286046998.1,N
1678738015.1,286047000.3,N
1678738035.8,286046998.4,N
1678738055.7,286047000.0,N
1678738075.5,286046999.7,N
1678738095.3,286047002.7,N
1678738115.2,286046999.8,N
1678738135.0,286047005.2,Y
1678738135.9,286047005.2,P
1678738155.7,286047003.3,N
1678738175.6,286047001.8,N
1678738195.4,286046998.7,N
1678738215.2,286046998.6,N
1678738235.1,286047000.2,N
1678738236.0,286047000.2,N
1678738255.8,286047002.0,N
1678738275.6,286047004.2,N
1678738295.5,286047003.4,N
1678738315.3,286047002.9,N
1678738335.1,286047005.8,N
1678738355.9,286047003.0,N
1678738375.7,286047005.9,N
1678738395.5,286047002.9,N
1678738415.4,286047005.5,N
1678738435.2,286047003.4,N
1678738455.0,286047005.3,N
1678738455.9,286047005.3,N
1678738475.8,286047005.7,N
1678738495.6,286047006.0,N
1678738515.4,286047005.0,N
1678738535.3,286047004.6,N
1678738555.1,286047004.8,N
1678738575.8,286047007.5,Y
1678738595.7,286047002.5,P
1678738615.5,286047001.8,P
1678738635.3,286047002.5,P
1678738655.2,286047001.3,N
1678738675.9,286047004.2,Y
1678738695.7,286047002.1,P
1678738715.6,286047002.1,P
1678738735.4,286047002.0,P
1678738755.2,286047004.4,Y
1678738775.1,286047000.2,P
1678738776.0,286047000.2,N
1678738795.8,286047002.6,N
1678738815.6,286047000.0,N
1678738835.5,286047001.9,N
1678738855.3,286047001.6,N
1678738875.1,286047002.1,N
1678738895.9,286047002.3,N
1678738915.7,286047001.5,N
1678738935.5,286047001.7,N
1678738955.4,286047003.9,Y
1678738975.2,286047002.0,P
1678738995.0,286047001.8,P
1678738995.9,286047001.8,P
1678739015.8,286047001.9,Y
1678739035.6,286046999.9,P
1678739055.4,286047000.2,N
1678739075.3,286046999.9,N
1678739095.1,286047002.4,Y
1678739115.8,286046999.8,P
1678739135.7,286047001.9,P
1678739155.5,286047004.0,P
1678739175.3,286047002.1,N
1678739195.2,286047002.1,N
1678739215.9,286047002.7,N
1678739235.7,286047002.8,N
1678739255.6,286047002.8,N
1678739275.4,286047000.5,N
1678739295.2,286047002.7,N
1678739315.1,286047001.3,N
1678739316.0,286047001.3,N
1678739335.8,286047002.0,N
1678739355.6,286047001.5,N
1678739375.5,286047004.3,Y
1678739395.3,286047000.5,P
1678739415.1,286047000.4,N
1678739435.9,286047000.3,N
1678739455.7,286047000.2,N
1678739475.5,286047000.9,N
1678739495.4,286046998.1,Y
1678739515.2,286046998.6,P
1678739535.0,286046999.1,N
1678739535.9,286046999.1,N
1678739555.8,286046997.2,Y
1678739575.6,286046999.6,P
1678739595.4,286046998.8,P
1678739615.3,286046998.3,P
1678739635.1,286046998.5,Y
1678739655.8,286047001.0,P
1678739675.7,286047000.3,N
1678739695.5,286047000.4,N
1678739715.3,286046998.1,N
1678739735.2,286046999.7,N
1678739755.9,286047000.9,N
1678739775.7,286047001.1,N
1678739795.6,286047000.8,N
1678739815.4,286046998.8,N
1678739835.2,286046999.0,N
1678739855.1,286046999.0,N
1678739856.0,286046999.0,N
1678739875.8,286046999.1,N
1678739895.6,286047001.2,N
1678739915.5,286046998.3,N
1678739935.3,286046998.9,N
1678739955.1,286046999.2,N
1678739975.9,286046999.0,N
1678739995.7,286046996.5,Y
1678740015.5,286046996.7,P
1678740035.4,286046997.5,N
1678740055.2,286046996.9,N
1678740075.0,286046997.4,N
1678740075.9,286046997.4,N
1678740095.8,286046997.2,N
1678740115.6,286046997.9,N
1678740135.4,286046997.8,N
1678740155.3,286046997.5,Y
1678740175.1,286046999.5,P
1678740176.0,286046999.5,N
1678740225.9,286046999.0,E
1678740235.8,286046998.6,N
1678740285.6,286047000.7,E
1678740295.6,286046998.4,N
1678740315.4,286046999.4,P
1678740335.2,286046999.1,N
1678740355.1,286046998.7,Y
1678740356.0,286046998.7,P
1678740375.8,286047000.2,N
1678740395.6,286046998.6,N
1678740415.5,286047001.0,N
1678740435.3,286047000.6,N
1678740455.1,286046998.1,N
1678740475.9,286046999.0,N
1678740495.7,286046998.8,N
1678740515.5,286046999.2,N
1678740535.4,286046997.1,Y
1678740555.2,286046996.8,P
1678740605.0,286046997.0,E
1678740615.9,286046998.4,N
1678740635.7,286047001.1,P
1678740655.5,286046998.1,N
1678740675.4,286046998.4,N
1678740695.2,286046998.1,N
1678740715.0,286046999.3,N
1678740715.9,286046999.3,N
1678740735.8,286046998.9,N
1678740755.6,286046998.6,N
1678740775.4,286046998.6,N
1678740795.2,286046998.6,N
1678740815.1,286046998.2,N
1678740816.0,286046998.2,N
1678740835.8,286046998.3,N
1678740855.6,286046998.9,N
1678740875.5,286046998.5,N
1678740895.3,286046998.7,N
1678740915.1,286047000.3,N
1678740935.9,286046998.4,N
1678740955.7,286046997.0,Y
1678740975.5,286046998.1,P
1678740995.4,286047000.9,N
1678741015.2,286046998.1,N
1678741035.0,286046998.2,N
1678741035.9,286046998.2,N
1678741055.8,286047001.2,N
1678741075.6,286046999.3,N
1678741095.4,286046996.5,N
1678741115.3,286046997.0,N
1678741135.1,286046996.6,N
1678741155.8,286046998.9,N
1678741175.7,286046996.8,N
1678741195.5,286046999.5,N
